{"data":{"norad_id":38551,"epoch":"2026-05-25T03:34:38.682912Z","epoch_age_seconds":69128,"freshness":"FRESH","line1":"1 38551U 12035A   26145.14905883  .00000000  00000+0  00000+0 0  9997","line2":"2 38551   0.0175 311.9204 0002133 116.4688 120.9102  1.00269296 50836","mean_motion":1.00269296,"eccentricity":0.0002133,"inclination_deg":0.0175,"raan_deg":311.9204,"arg_perigee_deg":116.4688,"mean_anomaly_deg":120.9102,"bstar":0,"rev_number":5083,"period_min":1436.1325524815,"perigee_km":35778.298846516,"apogee_km":35796.28661884,"semimajor_km":42165.429732678,"source":"CELESTRAK","updated_at":"2026-05-25T13:38:13.912177Z"}}